ONEWEB-0305, 49093

Orbit data source: Space-Track

ONEWEB-0305, 49093 is a payload satellite owned by One Web (NAA) (UK) in LEO that was launched on Sat, 21 Aug 2021 UTC via a SOYUZ-2-1B launch vehicle from the Tyuratam Missile And Space Complex (TTMTR). Payload-class satellites include a variety of spacecraft equipped with specific instruments for various scientific and technological missions. These include communications satellites like Starlink; space stations such as the ISS; scientific satellites like the Hubble; Earth observation satellites from companies like Planet Labs, Umbra, and HawkEye 360; GPS; miniature CubeSats for education and research; and military/defense satellites.

Loading next visibility...
Identifier
49093, 2021-075U
Orbit
LEO
Country
Flag of UKUK
Related business
Manufacturer
One Web
Mission
Operational Commercial Communications
Bus & Motor
ARROW, Unknown motor
Mass
148 kg wet, ~140 kg dry
Launch date (UTC)
2021-08-21 (5 years ago)
Launch vehicle
SOYUZ-2-1B
Launch site
Tyuratam Missile And Space Complex (TTMTR)
Object type
Payload
Rocket body
Debris
Shape & HBR
Trap Box + 2 Pan, 6.7 m
Radar Cross Section
3.464 m², Large (>1 m²)

Expand to show TLE details & history
Last TLE update: 12 hours ago

TLE from 12 hours ago
0 ONEWEB-0305
1 49093U 21075U   26168.54127330 -.00000003  00000-0 -40948-4 0  9992
2 49093  87.9141   5.7841 0002242  85.9349 274.2039 13.17649241233654
Epoch: 2026-06-17T12:59Z
TLE epoch observation values (Epoch: 2026-06-17T12:59:26.013Z)
Latitude
0.00002°
Longitude
-94.87176°
Altitude
1,196.487 km
Speed
7.256 km/s
True Right ascension
00h 23m 08s
True Declination
0° 00' 00"
Sunlit
Object was in daylight at epoch
Visualization orbit readout
Latitude
Unknown
Longitude
Unknown
Altitude
Unknown
Speed
Unknown
Apparent Right ascension
Unknown
Apparent Declination
Unknown
Sunlit
N/A
Visualization observer readout
Local Sidereal Time
12:06:42
Azimuth
Unknown
Elevation
Unknown
Doppler factor
Unknown
Orbital elements
Apogee altitude
1,192.518 km
Perigee altitude
1,189.124 km
Semi-major axis
7,568.958 km
Eccentricity
0.00022
Inclination
87.9141°
RAAN
5.7841°
Arg. of periapsis
85.9349°
True anomaly
274.17828°
Mean anomaly
274.2039°
Eccentric anomaly
274.19109°
Mean motion
3.29601 °/min
Orbital period
109.22 mins
BSTAR
-0.000040948
Loading maneuver chart data...
Computing Atmospheric mass density...
Loading historical data...
Loading historical data...
Loading historical data...
Loading historical data...
Loading historical data...
Loading historical data...
Loading historical data...

Documentation

Showing up to 5 results
|